{"data":{"norad_id":57607,"intl_designator":"2023-119F","name":"STARLINK-30252","alt_names":[],"object_type":"PAYLOAD","status":"ACTIVE","operator":null,"country":"US","launch_date":"2023-08-11","launch_site_code":"AFETR","launch_vehicle":null,"mission":null,"orbit_class":"UNKNOWN","rcs_meters":null,"size_class":null,"mass_kg":null,"dimensions":null,"purposes":["comms"],"wikipedia_slug":null,"has_3d_model":false,"image_url":null,"decayed_at":null,"tle_current":{"epoch":"2026-09-20T16:20:34.971648Z","epoch_age_seconds":112020,"freshness":"FRESH","line1":"1 57607U 23119F   26263.68096032  .00000430  00000+0  25135-4 0  9990","line2":"2 57607  43.0023  45.4331 0001316 272.9088  87.1613 15.27580458173086","mean_motion":15.27580458,"eccentricity":0.0001316,"inclination_deg":43.0023,"raan_deg":45.4331,"arg_perigee_deg":272.9088,"mean_anomaly_deg":87.1613,"bstar":2.5135e-5,"rev_number":17308,"period_min":94.266720450544,"perigee_km":482.14479271347,"apogee_km":483.95065653299,"semimajor_km":6861.1847246232,"source":"CELESTRAK","updated_at":"2026-09-21T09:00:33.640802Z"}}}